Regional Weather Roundup
Issued by NWS Charleston, WV

Home | Current Version | Previous Version | Graphics & Text | Print | Product List | Glossary On
Versions: 1 2 3 4 5 6 7 8 9 10 11 12 13 14 15 16 17 18 19 20 21 22 23 24 25 26 27
000
ASUS41 KRLX 260010
RWRRLX
West Virginia Regional Weather Roundup
National Weather Service Charleston WV
800 PM EDT TUE APR 25 2017

Note: "fair" indicates few or no clouds below 12,000 feet with no
significant weather and/or obstructions to visibility.

WVZ003-260100-
Northern Panhandle of West Virginia

CITY           SKY/WX    TMP DP  RH WIND       PRES   REMARKS
WHEELING       CLOUDY    59  54  83 E5        29.79S
$$

WVZ009-260100-
Northwest West Virginia

CITY           SKY/WX    TMP DP  RH WIND       PRES   REMARKS
PARKERSBURG    CLOUDY    68  53  58 E10       29.76R
$$

WVZ006-260100-
Western West Virginia

CITY           SKY/WX    TMP DP  RH WIND       PRES   REMARKS
HUNTINGTON     MOCLDY    70  56  61 S3        29.72S
$$

WVZ015-260100-
West Central West Virginia

CITY           SKY/WX    TMP DP  RH WIND       PRES   REMARKS
CHARLESTON     MOCLDY    67  57  70 S5        29.73S
$$

WVZ022-031-260100-
North Central West Virginia

CITY           SKY/WX    TMP DP  RH WIND       PRES   REMARKS
CLARKSBURG     CLOUDY    61  49  64 E10       29.78R
MORGANTOWN     CLOUDY    60  51  72 VRB5      29.80S
$$

WVZ025-035-042-045-260100-
Southern West Virginia

CITY           SKY/WX    TMP DP  RH WIND       PRES   REMARKS
BECKLEY        CLOUDY    60  54  80 N5        29.78S
LOGAN          CLOUDY    66  57  72 CALM      29.75S
BLUEFIELD      LGT RAIN  56  55  97 CALM      29.79S FOG
LEWISBURG      CLOUDY    59  52  75 CALM      29.77R
$$

WVZ047-260100-
Northern Mountains of West Virginia

CITY           SKY/WX    TMP DP  RH WIND       PRES   REMARKS
ELKINS         CLOUDY    58  47  66 VRB3      29.79R
$$

WVZ052-260100-
Eastern Panhandle of West Virginia

CITY           SKY/WX    TMP DP  RH WIND       PRES   REMARKS
MARTINSBURG    CLOUDY    56  54  93 N9        29.77S
PETERSBURG     CLOUDY    56  55  94 CALM      29.81F
$$




USA.gov is the U.S. government's official web portal to all federal, state and local government web resources and services.